TimeCDT,TemperatureF,Dew PointF,Humidity,Sea Level PressureIn,VisibilityMPH,Wind Direction,Wind SpeedMPH,Gust SpeedMPH,PrecipitationIn,Events,Conditions,WindDirDegrees,DateUTC
12:15 AM,68.0,64.4,88,29.84,10.0,Calm,Calm,-,N/A,,Clear,0,2013-06-07 05:15:00
12:35 AM,68.0,64.4,88,29.83,9.0,Calm,Calm,-,N/A,,Clear,0,2013-06-07 05:35:00
12:55 AM,68.0,64.4,88,29.84,9.0,WSW,4.6,-,N/A,,Clear,240,2013-06-07 05:55:00
1:15 AM,66.2,64.4,94,29.83,10.0,West,5.8,-,N/A,,Clear,280,2013-06-07 06:15:00
1:35 AM,66.2,64.4,94,29.82,10.0,West,4.6,-,N/A,,Clear,280,2013-06-07 06:35:00
1:55 AM,66.2,64.4,94,29.82,10.0,West,3.5,-,N/A,,Clear,260,2013-06-07 06:55:00
2:15 AM,66.2,64.4,94,29.81,10.0,Calm,Calm,-,N/A,,Clear,0,2013-06-07 07:15:00
2:35 AM,66.2,62.6,88,29.80,9.0,Calm,Calm,-,N/A,,Clear,0,2013-06-07 07:35:00
2:55 AM,66.2,62.6,88,29.80,9.0,Calm,Calm,-,N/A,,Clear,0,2013-06-07 07:55:00
3:15 AM,66.2,62.6,88,29.79,7.0,West,3.5,-,N/A,,Clear,280,2013-06-07 08:15:00
3:35 AM,66.2,62.6,88,29.79,8.0,Calm,Calm,-,N/A,,Clear,0,2013-06-07 08:35:00
3:55 AM,66.2,62.6,88,29.80,7.0,Calm,Calm,-,N/A,,Clear,0,2013-06-07 08:55:00
4:15 AM,66.2,62.6,88,29.81,7.0,WSW,4.6,-,N/A,,Mostly Cloudy,240,2013-06-07 09:15:00
4:35 AM,66.2,64.4,94,29.81,7.0,West,3.5,-,N/A,,Overcast,270,2013-06-07 09:35:00
4:55 AM,66.2,62.6,88,29.80,7.0,NNW,3.5,-,N/A,,Mostly Cloudy,340,2013-06-07 09:55:00
5:15 AM,66.2,64.4,94,29.81,8.0,West,3.5,-,N/A,,Mostly Cloudy,270,2013-06-07 10:15:00
5:35 AM,66.2,64.4,94,29.81,8.0,WSW,3.5,-,N/A,,Overcast,240,2013-06-07 10:35:00
5:55 AM,66.2,64.4,94,29.83,8.0,SW,3.5,-,N/A,,Mostly Cloudy,230,2013-06-07 10:55:00
6:15 AM,66.2,64.4,94,29.83,4.0,West,3.5,-,N/A,,Mostly Cloudy,280,2013-06-07 11:15:00
6:35 AM,66.2,64.4,94,29.83,5.0,West,3.5,-,N/A,,Mostly Cloudy,280,2013-06-07 11:35:00
6:55 AM,68.0,64.4,88,29.83,5.0,Calm,Calm,-,N/A,,Mostly Cloudy,0,2013-06-07 11:55:00
7:15 AM,68.0,64.4,88,29.84,5.0,Calm,Calm,-,N/A,,Mostly Cloudy,0,2013-06-07 12:15:00
7:35 AM,68.0,64.4,88,29.84,5.0,SW,3.5,-,N/A,,Overcast,230,2013-06-07 12:35:00
7:55 AM,68.0,64.4,88,29.85,4.0,West,4.6,-,N/A,,Overcast,270,2013-06-07 12:55:00
8:15 AM,68.0,64.4,88,29.85,5.0,West,5.8,-,N/A,,Overcast,280,2013-06-07 13:15:00
8:35 AM,69.8,66.2,88,29.86,5.0,Calm,Calm,-,N/A,,Overcast,0,2013-06-07 13:35:00
8:55 AM,69.8,66.2,88,29.86,3.0,South,3.5,-,N/A,,Mostly Cloudy,190,2013-06-07 13:55:00
9:15 AM,69.8,66.2,88,29.87,5.0,NW,3.5,-,N/A,,Mostly Cloudy,310,2013-06-07 14:15:00
9:35 AM,71.6,68.0,88,29.88,10.0,NW,4.6,-,N/A,,Overcast,320,2013-06-07 14:35:00
9:55 AM,71.6,66.2,83,29.88,10.0,WNW,3.5,-,N/A,,Overcast,300,2013-06-07 14:55:00
10:15 AM,73.4,66.2,78,29.88,10.0,NW,4.6,-,N/A,,Overcast,310,2013-06-07 15:15:00
10:35 AM,73.4,68.0,83,29.88,7.0,Calm,Calm,-,N/A,,Overcast,0,2013-06-07 15:35:00
10:55 AM,75.2,68.0,78,29.88,10.0,NW,3.5,-,N/A,,Mostly Cloudy,320,2013-06-07 15:55:00
11:15 AM,75.2,68.0,78,29.88,10.0,West,4.6,-,N/A,,Mostly Cloudy,260,2013-06-07 16:15:00
11:35 AM,75.2,68.0,78,29.89,10.0,West,4.6,-,N/A,,Mostly Cloudy,270,2013-06-07 16:35:00
11:55 AM,75.2,68.0,78,29.88,10.0,West,5.8,-,N/A,,Mostly Cloudy,270,2013-06-07 16:55:00
12:15 PM,78.8,69.8,74,29.88,10.0,West,4.6,-,N/A,,Mostly Cloudy,270,2013-06-07 17:15:00
12:35 PM,78.8,68.0,69,29.88,10.0,WNW,5.8,-,N/A,,Mostly Cloudy,290,2013-06-07 17:35:00
12:55 PM,80.6,68.0,65,29.88,10.0,NW,9.2,-,N/A,,Mostly Cloudy,310,2013-06-07 17:55:00
1:15 PM,80.6,66.2,61,29.87,10.0,West,4.6,-,N/A,,Scattered Clouds,280,2013-06-07 18:15:00
1:35 PM,80.6,68.0,65,29.87,10.0,WNW,6.9,-,N/A,,Scattered Clouds,300,2013-06-07 18:35:00
1:55 PM,80.6,68.0,65,29.86,10.0,West,5.8,-,N/A,,Scattered Clouds,270,2013-06-07 18:55:00
2:15 PM,80.6,66.2,61,29.86,10.0,West,5.8,-,N/A,,Scattered Clouds,270,2013-06-07 19:15:00
2:35 PM,82.4,66.2,58,29.85,10.0,Calm,Calm,-,N/A,,Partly Cloudy,0,2013-06-07 19:35:00
2:55 PM,82.4,66.2,58,29.85,10.0,WSW,3.5,-,N/A,,Scattered Clouds,240,2013-06-07 19:55:00
3:15 PM,80.6,66.2,61,29.85,10.0,Calm,Calm,-,N/A,,Mostly Cloudy,0,2013-06-07 20:15:00
3:35 PM,82.4,68.0,62,29.85,10.0,West,5.8,-,N/A,,Scattered Clouds,270,2013-06-07 20:35:00
3:55 PM,82.4,66.2,58,29.84,10.0,West,6.9,-,N/A,,Partly Cloudy,280,2013-06-07 20:55:00
4:15 PM,82.4,66.2,58,29.84,10.0,West,5.8,-,N/A,,Partly Cloudy,280,2013-06-07 21:15:00
4:35 PM,82.4,66.2,58,29.84,10.0,WSW,6.9,-,N/A,,Partly Cloudy,250,2013-06-07 21:35:00
4:55 PM,82.4,66.2,58,29.84,10.0,West,4.6,-,N/A,,Scattered Clouds,260,2013-06-07 21:55:00
5:15 PM,80.6,66.2,61,29.84,10.0,WNW,5.8,-,N/A,,Scattered Clouds,290,2013-06-07 22:15:00
5:35 PM,80.6,68.0,65,29.84,10.0,West,5.8,-,N/A,,Mostly Cloudy,280,2013-06-07 22:35:00
5:55 PM,80.6,69.8,70,29.84,10.0,WNW,3.5,-,N/A,,Mostly Cloudy,300,2013-06-07 22:55:00
6:15 PM,80.6,68.0,65,29.85,10.0,WNW,4.6,-,N/A,,Mostly Cloudy,300,2013-06-07 23:15:00
6:35 PM,80.6,68.0,65,29.85,10.0,NW,3.5,-,N/A,,Overcast,320,2013-06-07 23:35:00
6:55 PM,80.6,69.8,70,29.85,10.0,Calm,Calm,-,N/A,,Mostly Cloudy,0,2013-06-07 23:55:00
7:15 PM,80.6,69.8,70,29.86,10.0,NW,3.5,-,N/A,,Clear,320,2013-06-08 00:15:00
7:35 PM,78.8,69.8,74,29.87,10.0,Calm,Calm,-,N/A,,Partly Cloudy,0,2013-06-08 00:35:00
7:55 PM,78.8,68.0,69,29.87,10.0,NNW,4.6,-,N/A,,Mostly Cloudy,340,2013-06-08 00:55:00
8:15 PM,75.2,68.0,78,29.88,10.0,NNW,3.5,-,N/A,,Scattered Clouds,330,2013-06-08 01:15:00
8:35 PM,75.2,66.2,73,29.88,10.0,NNW,4.6,-,N/A,,Clear,330,2013-06-08 01:35:00
8:55 PM,73.4,66.2,78,29.89,10.0,NNW,5.8,-,N/A,,Clear,330,2013-06-08 01:55:00
9:15 PM,73.4,66.2,78,29.90,10.0,NNW,4.6,-,N/A,,Clear,330,2013-06-08 02:15:00
9:35 PM,71.6,66.2,83,29.91,10.0,NNW,3.5,-,N/A,,Clear,340,2013-06-08 02:35:00
9:55 PM,71.6,66.2,83,29.91,10.0,NNW,4.6,-,N/A,,Clear,340,2013-06-08 02:55:00
10:15 PM,71.6,66.2,83,29.92,10.0,Calm,Calm,-,N/A,,Clear,0,2013-06-08 03:15:00
10:35 PM,71.6,66.2,83,29.92,8.0,Calm,Calm,-,N/A,,Clear,0,2013-06-08 03:35:00
10:55 PM,69.8,66.2,88,29.93,7.0,Calm,Calm,-,N/A,,Clear,0,2013-06-08 03:55:00
11:15 PM,69.8,64.4,83,29.93,7.0,Calm,Calm,-,N/A,,Clear,0,2013-06-08 04:15:00
11:35 PM,69.8,66.2,88,29.93,5.0,Calm,Calm,-,N/A,,Partly Cloudy,0,2013-06-08 04:35:00
11:55 PM,69.8,66.2,88,29.93,5.0,Calm,Calm,-,N/A,,Partly Cloudy,0,2013-06-08 04:55:00